TimeCST,TemperatureF,Dew PointF,Humidity,Sea Level PressureIn,VisibilityMPH,Wind Direction,Wind SpeedMPH,Gust SpeedMPH,PrecipitationIn,Events,Conditions,WindDirDegrees,DateUTC
12:58 AM,46.0,43.0,89,30.18,8.0,NNW,4.6,-,0.00,Rain,Light Rain,340,2013-01-03 06:58:00
1:58 AM,45.0,42.1,90,30.19,7.0,Variable,6.9,-,0.01,Rain,Light Rain,0,2013-01-03 07:58:00
2:20 AM,44.6,42.8,93,30.19,6.0,Calm,Calm,-,0.00,,Overcast,0,2013-01-03 08:20:00
2:58 AM,44.1,43.0,96,30.18,5.0,North,3.5,-,0.00,Rain,Light Rain,10,2013-01-03 08:58:00
3:51 AM,44.6,42.8,93,30.20,6.0,Variable,4.6,-,0.00,Rain,Light Rain,0,2013-01-03 09:51:00
3:58 AM,44.1,42.1,93,30.19,6.0,North,5.8,-,0.00,Rain,Light Rain,10,2013-01-03 09:58:00
4:14 AM,44.6,42.8,93,30.19,5.0,Variable,4.6,-,0.00,Rain,Light Rain,0,2013-01-03 10:14:00
4:58 AM,44.1,42.1,93,30.21,5.0,Calm,Calm,-,0.02,Rain,Light Rain,0,2013-01-03 10:58:00
5:06 AM,42.8,41.0,93,30.21,6.0,North,3.5,-,0.00,Rain,Light Rain,350,2013-01-03 11:06:00
5:29 AM,42.8,41.0,93,30.21,8.0,North,3.5,-,0.00,Rain,Light Rain,360,2013-01-03 11:29:00
5:58 AM,43.0,41.0,93,30.21,8.0,North,4.6,-,0.00,Rain,Light Rain,10,2013-01-03 11:58:00
6:58 AM,43.0,41.0,93,30.24,6.0,Calm,Calm,-,0.01,Rain,Light Rain,0,2013-01-03 12:58:00
7:16 AM,42.8,41.0,93,30.23,6.0,North,3.5,-,0.00,Rain,Light Rain,360,2013-01-03 13:16:00
7:25 AM,42.8,41.0,93,30.23,5.0,North,4.6,-,0.01,Rain,Light Rain,360,2013-01-03 13:25:00
7:58 AM,43.0,41.0,93,30.24,5.0,North,3.5,-,0.01,Rain,Light Rain,350,2013-01-03 13:58:00
8:56 AM,42.8,41.0,93,30.27,5.0,Variable,4.6,-,0.03,Rain,Rain,0,2013-01-03 14:56:00
8:58 AM,43.0,41.0,93,30.27,5.0,North,3.5,-,0.03,Rain,Rain,360,2013-01-03 14:58:00
9:14 AM,42.8,39.2,87,30.28,5.0,North,6.9,-,0.01,Rain,Light Rain,360,2013-01-03 15:14:00
9:19 AM,42.8,39.2,87,30.28,5.0,North,8.1,-,0.01,Rain,Light Rain,360,2013-01-03 15:19:00
9:26 AM,42.8,39.2,87,30.28,7.0,North,6.9,-,0.01,Rain,Light Rain,10,2013-01-03 15:26:00
9:58 AM,43.0,39.9,89,30.26,8.0,NNE,8.1,-,0.02,Rain,Light Rain,30,2013-01-03 15:58:00
10:29 AM,42.8,41.0,93,30.27,10.0,North,5.8,-,0.00,,Overcast,10,2013-01-03 16:29:00
10:58 AM,45.0,41.0,86,30.27,10.0,North,5.8,-,0.00,,Mostly Cloudy,10,2013-01-03 16:58:00
11:44 AM,44.6,39.2,81,30.25,10.0,North,8.1,-,N/A,,Overcast,360,2013-01-03 17:44:00
11:58 AM,45.0,39.9,82,30.23,10.0,North,8.1,-,N/A,,Overcast,10,2013-01-03 17:58:00
12:08 PM,44.6,39.2,81,30.23,10.0,North,6.9,-,N/A,,Overcast,350,2013-01-03 18:08:00
12:24 PM,46.4,39.2,76,30.23,10.0,North,5.8,-,N/A,,Overcast,350,2013-01-03 18:24:00
12:34 PM,44.6,39.2,81,30.22,10.0,North,5.8,-,N/A,,Overcast,360,2013-01-03 18:34:00
12:42 PM,46.4,39.2,76,30.22,10.0,North,5.8,-,N/A,,Overcast,350,2013-01-03 18:42:00
12:58 PM,46.0,41.0,83,30.23,10.0,Variable,3.5,-,N/A,,Overcast,0,2013-01-03 18:58:00
1:07 PM,46.4,41.0,81,30.22,10.0,Variable,3.5,-,N/A,,Overcast,0,2013-01-03 19:07:00
1:25 PM,46.4,41.0,81,30.23,10.0,Variable,4.6,-,N/A,,Overcast,0,2013-01-03 19:25:00
1:58 PM,46.0,39.9,79,30.24,10.0,Variable,3.5,-,N/A,,Overcast,0,2013-01-03 19:58:00
2:58 PM,46.0,39.9,79,30.25,10.0,North,3.5,-,N/A,,Mostly Cloudy,10,2013-01-03 20:58:00
3:15 PM,46.4,39.2,76,30.25,10.0,North,6.9,-,N/A,,Scattered Clouds,360,2013-01-03 21:15:00
3:58 PM,46.0,39.0,76,30.27,10.0,North,5.8,-,N/A,,Clear,360,2013-01-03 21:58:00
4:58 PM,44.1,37.9,79,30.28,10.0,North,4.6,-,N/A,,Clear,350,2013-01-03 22:58:00
5:58 PM,42.1,37.9,85,30.30,10.0,Calm,Calm,-,N/A,,Clear,0,2013-01-03 23:58:00
6:58 PM,41.0,37.9,89,30.32,9.0,NNW,3.5,-,N/A,,Clear,340,2013-01-04 00:58:00
7:58 PM,39.9,36.0,86,30.33,-9999.0,North,4.6,-,N/A,,Clear,350,2013-01-04 01:58:00
8:58 PM,37.9,35.1,89,30.34,-9999.0,NNW,4.6,-,N/A,,Clear,340,2013-01-04 02:58:00
9:58 PM,37.0,33.1,86,30.35,-9999.0,North,3.5,-,N/A,,Clear,350,2013-01-04 03:58:00
10:58 PM,36.0,32.0,86,30.34,-9999.0,North,4.6,-,N/A,,Clear,360,2013-01-04 04:58:00
11:58 PM,36.0,30.9,82,30.33,-9999.0,North,3.5,-,N/A,,Clear,350,2013-01-04 05:58:00